Location: ??
(35.1715°N, 139.6450°E)
Time: 04:34:17
(UTC+00:00)

Meteor 1-28 Rocket - Pass Details

Date: 05 August 2024
Orbit: 468 x 483 km, 97.5° (Epoch: 10 September)

Event Time Altitude Azimuth Distance (km) Brightness Sun altitude
Exits shadow 17:28:43 38° 4° (N) 766 4.3 -25.6°
Drops below altitude 10° 17:31:04 10° 353° (N) 1,686 6.3 -25.2°
Sets 17:33:09 0° 351° (N) 2,569 7.2 -24.9°
